Location: ?????
(24.0934°N, 32.9070°E)
Time: 03:52:08
(UTC+00:00)

Daily predictions for brighter satellites

Satellite Brightness Start Highest point End
(mag) Time Altitude Azimuth Time Altitude Azimuth Time Altitude Azimuth
CZ-4C R/B 4.4 01:19:03 17° ENE 01:19:03 17° ENE 01:20:30 10° NE
Milstar 3 Cent rocket 3.9 01:28:13 25° ENE 01:28:13 25° ENE 01:30:07 10° ENE
Cosmos 2322 Rocket 2.8 01:45:18 53° E 01:45:18 53° E 01:50:11 10° SSE
Cosmos 2315 Rocket 4.1 01:51:22 53° SSE 01:52:49 72° E 01:58:59 10° N
CZ-3 R/B 3.5 01:42:20 40° WSW 01:53:51 77° SSE 02:02:34 10° ENE
X-37B 4.1 01:58:24 10° ESE 01:58:24 10° ESE 01:58:28 10° ESE
DELTA 4 R/B 3.8 02:01:12 22° ESE 02:01:12 22° ESE 02:02:07 10° ESE
USA 234 3.7 01:53:13 10° ESE 01:59:34 56° NE 02:03:50 22° NNW
Skynet4D Del rocket 3.6 02:03:17 70° NE 02:03:17 70° NE 02:08:08 10° ENE
NOSS 3-4 (A) 3.1 02:07:13 81° SW 02:07:30 88° WNW 02:13:26 10° NNE
NOSS 3-4 (C) 3.1 02:07:14 80° SSW 02:07:35 89° WNW 02:13:31 10° NNE
SL-16 R/B 3.5 02:14:41 26° S 02:14:41 26° S 02:17:06 10° S
ATLAS 5 CENTAUR R/B 2.9 02:14:03 27° NNE 02:14:03 27° NNE 02:15:58 10° NNE
ASTRO E2 3.2 02:20:33 54° NE 02:20:33 54° NE 02:24:01 10° E
Lacrosse 4 Rocket 3.3 02:17:13 10° N 02:21:08 31° ENE 02:24:58 10° SE
METEOR-M 4.0 02:16:06 10° N 02:21:26 81° WNW 02:24:04 31° SSW
ATLAS 2AS CENTAUR R/B 3.1 02:14:29 12° SSW 02:21:39 76° ESE 02:29:34 10° NNE
Cosmos 1933 3.3 02:24:56 72° SSE 02:25:15 79° E 02:29:16 10° N
Cosmos 1805 Rocket 3.9 02:24:24 10° N 02:28:49 67° E 02:33:12 10° SSE
Cosmos 1992 Rocket 4.1 02:24:57 10° N 02:30:09 76° ENE 02:35:20 10° SSE
Fermi 3.8 02:31:39 61° S 02:31:39 61° S 02:35:31 10° ESE
Celestis-02/Orion 38 4.4 02:27:58 10° NNE 02:33:06 76° WNW 02:35:48 28° SSW
FENGYUN 3A 4.1 02:29:52 10° N 02:34:25 39° WNW 02:34:25 39° WNW
Landsat 5 3.0 02:33:28 10° S 02:37:16 72° WSW 02:38:15 46° NNW
Cosmos 2237 4.1 02:31:59 10° NNW 02:37:39 68° WSW 02:43:16 10° S
GMS 1 Rocket B 4.2 02:41:40 56° WSW 02:42:12 64° SSW 02:46:07 10° ESE
Cosmos 1140 Rocket 3.3 02:38:10 10° SSW 02:43:23 81° WNW 02:48:36 10° NNE
Lacrosse 5 4.4 02:46:28 10° N 02:50:02 19° NE 02:53:35 10° E
Sich 1 2.9 02:46:23 10° N 02:50:47 88° W 02:55:07 10° S
SJ-12 3.7 02:47:13 10° N 02:51:16 75° WNW 02:55:17 10° SSW
ADEOS 3.5 02:46:39 10° N 02:51:47 59° WNW 02:56:53 10° SSW
Cosmos 1666 Rocket 4.5 02:48:00 10° N 02:52:15 51° E 02:56:32 10° SSE
GPS 2-17 Rocket1 3.9 02:50:48 25° SW 02:53:04 42° S 02:57:32 10° E
Sakura Rocket 3.4 02:51:48 29° NW 02:53:17 43° N 02:56:47 10° ENE
ALOS 3.9 02:49:56 10° NNW 02:51:39 17° NW 02:51:39 17° NW
Cosmos 1709 Rocket 4.2 02:48:07 10° NNW 02:54:12 49° W 03:00:16 10° SSW
Star 48B S/N 10043-17 4.2 02:54:05 61° WSW 02:54:25 88° S 02:56:49 10° E
Cosmos 2360 Rocket 2.2 02:50:40 10° NNW 02:56:11 55° WSW 03:01:40 10° S
CZ-4B R/B 3.6 02:53:42 10° SE 02:56:22 25° ENE 02:59:01 10° NNE
H-2A R/B 3.4 02:53:46 10° NNE 02:57:35 57° E 03:01:21 10° S
Cosmos 2333 4.5 02:52:52 10° NNW 02:58:40 74° ENE 03:04:25 10° SSE
Meteor 1-31 Rocket 3.1 02:56:26 10° N 03:00:03 41° WNW 03:03:23 12° SW
USA 238 DEB 4.5 02:54:51 10° NNW 03:02:14 62° ENE 03:09:47 10° SE
SeaSat 1 3.8 02:57:42 10° SE 03:02:15 40° ENE 03:06:49 10° N
USA 238 4.5 02:54:58 10° NNW 03:02:20 61° ENE 03:09:51 10° SE
H-2A R/B 2.0 02:58:28 10° S 03:02:44 63° WSW 03:06:56 10° NNW
CZ-4B R/B 3.2 02:58:49 10° NNE 03:03:21 81° E 03:07:46 10° S
CZ-4C R/B 3.2 03:04:17 18° WNW 03:04:43 19° NW 03:08:17 10° N
Cosmos 2227 Rocket 2.9 03:03:18 10° S 03:08:49 56° ESE 03:14:21 10° NNE
Meteosat 1 Rocket2 4.1 03:03:02 19° WNW 03:09:05 71° SSW 03:14:27 10° ESE
SKYMED 2 4.0 03:05:58 10° SSE 03:10:15 67° ENE 03:14:33 10° N
CZ-2C R/B 2.4 03:06:19 11° SW 03:10:20 43° SSE 03:14:31 10° ENE
Cosmos 1151 Rocket 3.4 03:07:34 10° SSW 03:11:40 41° W 03:15:45 10° NNW
Cosmos 1437 Rocket 3.2 03:07:48 10° SSW 03:11:42 42° W 03:15:34 10° N
Cosmos 1782 3.0 03:11:12 10° SSW 03:14:56 43° W 03:18:42 10° N
MOS 1 Rocket 3.1 03:11:25 10° SSE 03:15:41 90° ENE 03:20:05 10° N
Meteor 1-26 Rocket 4.5 03:12:32 10° SSW 03:17:51 46° W 03:23:23 10° N
Cosmos 2333 Rocket 2.3 03:12:14 10° NNW 03:18:01 87° ENE 03:23:46 10° SSE
Cosmos 1242 Rocket 2.8 03:18:22 10° S 03:21:45 66° E 03:25:09 10° NNE
OAO 2 Rocket 4.3 03:17:14 10° SW 03:21:59 43° SSE 03:26:40 10° ENE
Cosmos 2297 Rocket 2.1 03:18:44 10° SSW 03:24:21 75° WNW 03:30:00 10° NNE
Nadezhda 1 Rocket 3.9 03:18:34 10° SSW 03:24:37 71° W 03:30:45 10° N
Cosmos 1633 Rocket 3.0 03:20:55 10° N 03:25:16 72° W 03:29:36 10° S
Orbus 7S 3.0 03:24:16 15° W 03:26:14 68° N 03:29:04 10° ENE
Cosmos 2322 Rocket 3.8 03:27:18 12° W 03:28:05 12° W 03:30:06 10° WSW
X-37B 2.8 03:30:45 10° WSW 03:31:52 12° SW 03:33:04 10° SSW
NOSS 3-2 (A) 4.3 03:24:23 10° NNW 03:32:33 68° WSW 03:41:17 10° SSE
Cosmos 1954 Rocket 4.3 03:30:04 10° SSW 03:35:07 47° WNW 03:40:11 10° N
Cosmos 2219 Rocket 2.2 03:35:30 10° NNW 03:41:07 66° WSW 03:46:43 10° S
USA 234 4.2 03:37:15 10° S 03:42:34 27° WSW 03:47:54 10° WNW
CENTAUR R/B 3.4 03:41:05 10° NNW 03:49:48 79° WSW 03:58:39 10° SSE
